Columbus AFB, MS

2:09 PM CST on February 21, 2018 (GMT -0600)
Columbus Air Force Base

Weather History for KCBM - February, 2013

Change the Weather History Date:

Tuesday, February 19, 2013

  Actual Average Record
Temperature  
Mean Temperature 44 °F -  
Max Temperature 54 °F 58 °F 77 °F (2018)
Min Temperature 32 °F 39 °F 16 °F (2015)
Degree Days  
Heating Degree Days 21    
Moisture  
Dew Point 39 °F    
Average Humidity 77    
Maximum Humidity 100    
Minimum Humidity 28    
Precipitation  
Precipitation 0.16 in - - ()
Sea Level Pressure  
Sea Level Pressure 30.09 in    
Wind  
Wind Speed 9 mph (WNW)    
Max Wind Speed 21 mph    
Max Gust Speed 26 mph    
Visibility 10 miles    
Events Rain    
Averages and records for this station are not official NWS values.
T = Trace of Precipitation, MM = Missing Value Source: NWS Daily Summary

Daily Weather History Graph

Daily Weather History Graph

Search for Another Location

Airport or City:

Trip Planner

Search our weather history database for the weather conditions in past years. The results will help you decide how hot, cold, wet, or windy it might be!

Date:

Astronomy

Feb. 19, 2013 Rise Set
Actual Time 6:33 AM CST 5:42 PM CST
Civil Twilight 6:08 AM CST 6:07 PM CST
Nautical Twilight 5:39 AM CST 6:36 PM CST
Astronomical Twilight 5:10 AM CST 7:05 PM CST
Moon 12:22 PM CST (2/19) 1:56 AM CST (2/19)
Length of Visible Light 11h 59m
Length of Day
11h 08m
Waxing Gibbous, 67% of the Moon is Illuminated
Feb 19
Waxing Gibbous
Feb 25
Full
Mar 4
Last Quarter
Mar 11
New
Mar 19
First Quarter

Hourly Weather History & Observations

Time (CST) Temp. Windchill Dew Point Humidity Pressure Visibility Wind Dir Wind Speed Gust Speed Precip Events Conditions
12:18 AM 50.0 °F - 50.0 °F 100% 29.98 in 10.0 mi SSE 2.3 mph - N/A Rain Light Rain
12:58 AM 49.6 °F - 49.6 °F 100% 29.99 in 6.0 mi SE 6.9 mph - 0.10 in Rain Light Rain
1:03 AM 50.0 °F - 50.0 °F 100% 29.98 in 8.0 mi SE 6.9 mph - N/A Rain Light Rain
1:41 AM 50.0 °F - 50.0 °F 100% 29.95 in 10.0 mi SE 10.4 mph - N/A   Overcast
1:51 AM 50.0 °F - 50.0 °F 100% 29.95 in 10.0 mi SE 8.1 mph - N/A   Overcast
1:58 AM 50.0 °F - 50.0 °F 100% 29.96 in 10.0 mi SSE 5.8 mph - 0.06 in   Overcast
2:03 AM 50.0 °F - 50.0 °F 100% 29.96 in 10.0 mi South 4.6 mph - N/A   Overcast
2:18 AM 50.0 °F - 50.0 °F 100% 29.95 in 10.0 mi South 4.6 mph - N/A   Overcast
2:43 AM 50.0 °F - 50.0 °F 100% 29.96 in 10.0 mi SSW 4.6 mph - N/A   Overcast
2:48 AM 50.0 °F - 50.0 °F 100% 29.97 in 10.0 mi SSW 5.8 mph - N/A   Overcast
2:53 AM 50.0 °F - 50.0 °F 100% 29.97 in 10.0 mi SSW 5.8 mph - N/A   Overcast
2:58 AM 50.5 °F - 50.5 °F 100% 29.98 in 10.0 mi South 5.8 mph - N/A   Overcast
3:21 AM 50.0 °F - 50.0 °F 100% 29.98 in 10.0 mi West 3.5 mph - N/A   Overcast
3:26 AM 50.0 °F - 50.0 °F 100% 29.98 in 10.0 mi WSW 5.8 mph - N/A   Overcast
3:51 AM 51.8 °F - 51.8 °F 100% 29.99 in 10.0 mi WNW 13.8 mph - N/A   Overcast
3:58 AM 51.3 °F - 51.3 °F 100% 30.01 in 10.0 mi NW 18.4 mph 24.2 mph N/A   Overcast
4:08 AM 50.0 °F - 48.2 °F 94% 30.01 in 10.0 mi NW 18.4 mph - N/A   Overcast
4:13 AM 50.0 °F - 48.2 °F 94% 30.02 in 10.0 mi NW 18.4 mph - N/A   Overcast
4:18 AM 48.2 °F - 46.4 °F 93% 30.02 in 10.0 mi NW 16.1 mph - N/A   Overcast
4:23 AM 48.2 °F - 46.4 °F 93% 30.03 in 10.0 mi NW 20.7 mph 24.2 mph N/A   Overcast
4:48 AM 46.4 °F 39.5 °F 41.0 °F 81% 30.05 in 10.0 mi NW 17.3 mph 26.5 mph N/A   Mostly Cloudy
4:53 AM 44.6 °F 38.1 °F 41.0 °F 87% 30.05 in 10.0 mi NW 13.8 mph 26.5 mph N/A   Mostly Cloudy
4:58 AM 45.1 °F 38.1 °F 40.8 °F 85% 30.06 in 10.0 mi NW 16.1 mph 26.5 mph N/A   Mostly Cloudy
5:03 AM 44.6 °F 37.8 °F 41.0 °F 87% 30.05 in 10.0 mi NW 15.0 mph - N/A   Mostly Cloudy
5:18 AM 44.6 °F 37.8 °F 39.2 °F 81% 30.06 in 10.0 mi NW 15.0 mph 24.2 mph N/A   Mostly Cloudy
5:23 AM 44.6 °F 38.8 °F 39.2 °F 81% 30.07 in 10.0 mi NW 11.5 mph 24.2 mph N/A   Scattered Clouds
5:58 AM 42.4 °F 35.7 °F 38.7 °F 86% 30.10 in 10.0 mi NW 12.7 mph - N/A   Clear
6:58 AM 41.0 °F 34.3 °F 37.0 °F 86% 30.14 in 10.0 mi NW 11.5 mph - N/A   Clear
7:58 AM 43.3 °F 36.1 °F 36.1 °F 76% 30.18 in 10.0 mi NW 15.0 mph 24.2 mph N/A   Clear
8:58 AM 45.0 °F 38.5 °F 35.8 °F 70% 30.20 in 10.0 mi NW 13.8 mph - N/A   Clear
9:58 AM 47.5 °F - 34.0 °F 59% 30.22 in 10.0 mi WNW 10.4 mph - N/A   Clear
10:58 AM 50.2 °F - 31.8 °F 49% 30.23 in 10.0 mi NW 9.2 mph - N/A   Clear
11:58 AM 51.6 °F - 30.9 °F 45% 30.23 in 10.0 mi NNW 12.7 mph - N/A   Clear
12:58 PM 53.1 °F - 25.2 °F 34% 30.22 in 10.0 mi WNW 19.6 mph - N/A   Clear
1:58 PM 54.5 °F - 27.5 °F 35% 30.20 in 10.0 mi WNW 16.1 mph 21.9 mph N/A   Clear
2:58 PM 53.2 °F - 24.3 °F 32% 30.21 in 10.0 mi NW 20.7 mph - N/A   Clear
3:30 PM 53.6 °F - 23.0 °F 30% 30.21 in 10.0 mi West 13.8 mph - N/A   Clear
3:58 PM 53.6 °F - 20.7 °F 28% 30.22 in 10.0 mi NW 17.3 mph - N/A   Clear
4:58 PM 51.8 °F - 20.1 °F 29% 30.23 in 10.0 mi WNW 16.1 mph - N/A   Clear
6:58 PM 44.1 °F 39.5 °F 22.8 °F 43% 30.25 in 10.0 mi NW 8.1 mph - N/A   Clear
7:58 PM 40.6 °F 36.0 °F 22.5 °F 48% 30.27 in 10.0 mi NW 6.9 mph - N/A   Clear
8:58 PM 39.6 °F 35.4 °F 24.3 °F 54% 30.27 in 10.0 mi NNW 5.8 mph - N/A   Clear
9:58 PM 39.2 °F 35.9 °F 23.4 °F 53% 30.30 in 10.0 mi NW 4.6 mph - N/A   Clear
10:58 PM 34.7 °F - 28.0 °F 77% 30.28 in 10.0 mi Calm Calm - N/A   Clear
11:58 PM 32.0 °F - 25.5 °F 77% 30.27 in 10.0 mi NE 1.2 mph - N/A   Clear